Preview of NWS' New Version of Forecast
This preview is not operational and should not be used for support decisions.

Regional Weather Roundup (RWR)

Issued by National Weather Service (NWS)

                            
000
ASUS42 KTBW 182115
RWRFL 
FLORIDA REGIONAL WEATHER ROUNDUP
NATIONAL WEATHER SERVICE TAMPA BAY RUSKIN FL
500 PM EDT TUE JUN 18 2019

NOTE: "FAIR" INDICATES FEW OR NO CLOUDS BELOW 12,000 FEET WITH NO
SIGNIFICANT WEATHER AND/OR OBSTRUCTIONS TO VISIBILITY.

FLZ001>010-012>015-112-114-115-182200-
PANHANDLE FLORIDA
  
CITY           SKY/WX    TMP DP  RH WIND       PRES   REMARKS
PENSACOLA      FAIR      84  78  82 SW8       29.92F HX  95           
PENSACOLA NAS  PTSUNNY   83  77  82 SW6       29.93F                  
MILTON NAS     PTSUNNY   80  74  81 W7        29.93F                  
CRESTVIEW      FAIR      76  72  87 CALM      29.96F                  
DUKE FIELD     PTSUNNY   77  72  85 CALM      29.94F                  
VALPARAISO     MOSUNNY   80  73  79 CALM      29.93F                  
TRI COUNTY     FAIR      76  75  97 CALM      29.96F                  
PANAMA CITY    FAIR      82  74  76 VRB6      29.94F                  
TYNDALL AFB    LGT RAIN  82  75  78 NW9       29.94F                  
APALACHICOLA   FAIR      88  75  65 SW13      29.95F HX  97           

STATION/POSITION SKY/WX   TEMP    WIND        PRES    WAVE   SWELL
                          AIR SEA DIR/SP/G            HT/PER HT/PER
                          (F)     (DEG/KT/KT) (MB)    (FT/S) (FT/S)
30.1N   87.6W                                   N/A     4/ 5
29.2N   88.2W                     200/ 16/ 19 1014.6R   4/ 5
PANAMA CITY BEAC NOT AVBL
TOWER C          NOT AVBL

$$
FLZ011-016>038-118-127-128-134-139-239-182200-
NORTH FLORIDA
  
CITY           SKY/WX    TMP DP  RH WIND       PRES   REMARKS
MARIANNA       FAIR      77  73  87 W7        29.96F                  
TALLAHASSEE    PTSUNNY   84  75  74 S10G21    29.94F THUNDER          
PERRY          FAIR      88  75  65 SW13      29.97S HX  98           
LIVE OAK       MOSUNNY   86  73  66 VRB3      29.95F                  
CROSS CITY     FAIR      88  73  60 W12       29.97S HX  96           
LAKE CITY      PTSUNNY   82  72  69 W9        29.97S                  
GAINESVILLE    FAIR      86  78  77 CALM      29.99F HX  98           
PALATKA        PTSUNNY   77  75  94 W5        29.98F                  
MAYPORT NAS    PTSUNNY   82  74  76 S9        29.96R THUNDER          
JACKSONVILLE   PTSUNNY   83  72  69 S15       29.94S THUNDER          
JAX NAS        TSTM      80  74  81 S7        29.97R                  
JAX CECIL      RAIN      79  77  94 SE6       29.96S                  
FERNANDINA BEA FAIR      85  76  75 S12       29.95F HX  95           
ST AUGUSTINE   FAIR      78  75  90 CALM      29.98R                  
PALM COAST     PTSUNNY   73  70  88 N3        30.00R                  

STATION/POSITION SKY/WX   TEMP    WIND        PRES    WAVE   SWELL
                          AIR SEA DIR/SP/G            HT/PER HT/PER
                          (F)     (DEG/KT/KT) (MB)    (FT/S) (FT/S)
SHELL POINT      NOT AVBL
KEATON BEACH               83     210/ 10/ 13 1014.9F
CEDAR KEY                  84     260/  7/ 11 1015.6F
FERNANDINA       NOT AVBL
30.7N   81.3W                 84                N/A     2/ 5
MAYPORT          NOT AVBL
31.4N   80.9W              81 84  170/ 14/ 16 1013.9F   3/ 6   2/13
ST AUGUSTINE               78 81  170/ 14/ 15 1015.3F

$$
FLZ040-043>046-052-053-057-058-063-144-182200-
INTERIOR CENTRAL FLORIDA
  
CITY           SKY/WX    TMP DP  RH WIND       PRES   REMARKS
OCALA          FAIR      88  74  63 W13       29.98S HX  96           
LEESBURG       PTSUNNY   81  76  84 SE6       30.00R                  
SANFORD        FAIR      83  74  74 SW9       30.00S                  
ORLANDO EXEC   FAIR      83  74  74 SW7       30.01S                  
ORLANDO INTL   PTSUNNY   82  75  79 SE8       30.01S                  
WINTER HAVEN   FAIR      85  74  69 S9        30.02S                  
LAKELAND       MOSUNNY   82  75  78 SE8       30.01S                  
BARTOW         PTSUNNY   84  75  74 S13       30.00F                  
SEBRING        FAIR      82  76  82 S8        30.02F                  
OKEECHOBEE     FAIR      79  73  83 S5        30.02F                  

$$
FLZ041-047-054-059-064-141-147-182200-
EAST CENTRAL FLORIDA
  
CITY           SKY/WX    TMP DP  RH WIND       PRES   REMARKS
ORMOND BEACH   PTSUNNY   77  77 100 S3        30.00R                  
DAYTONA BEACH  CLOUDY    78  77  96 S8        30.00R                  
DELAND         FAIR      84  75  74 S12       30.00R                  
NEW SMYRNA BEA MOSUNNY   77  72  83 S8        30.02R                  
JFK SPACE CTR  FAIR      75  64  70 S5        30.02S                  
TITUSVILLE     MOSUNNY   79  77  94 S5        30.03F                  
CAPE CANAVERAL TSTM      75  14  10 S6        30.02S                  
PATRICK AFB    FAIR      76  76 100 SW6       30.03S                  
MELBOURNE      RAIN      77  71  82 W3        30.04R                  
VERO BEACH     PTSUNNY   75  72  90 W6        30.04R                  
FT PIERCE      LGT RAIN  76  72  87 SW3       30.04R                  
STUART         PTSUNNY   82  72  69 S14       30.05S THUNDER          

STATION/POSITION SKY/WX   TEMP    WIND        PRES    WAVE   SWELL
                          AIR SEA DIR/SP/G            HT/PER HT/PER
                          (F)     (DEG/KT/KT) (MB)    (FT/S) (FT/S)
28.5N   80.2W              73 80  300/ 14/ 17 1017.2R
28.9N   78.5W              81 82  170/ 16/ 17   N/A
TRIDENT PIER     NOT AVBL
28.4N   80.5W                 78                N/A     2/ 4
27.5N   80.2W                 82                N/A     2/ 3

$$
FLZ050-056-061-142-242-148-248-149-249-151-251-155-255-
160-260-182200-
WEST CENTRAL FLORIDA
  
CITY           SKY/WX    TMP DP  RH WIND       PRES   REMARKS
CRYSTAL RIVER  HVY RAIN  79  73  83 W9G22     30.01R                  
INVERNESS      FAIR      86  81  84 W5        29.99S HX 102           
BROOKSVILLE    FAIR      88  75  65 W17G25    30.01R HX  97           
CLEARWATER AIR PTSUNNY   86  73  66 SW10      30.00F                  
ST PETE CLEARW FAIR      88  74  63 SW14G23   30.00S HX  96           
TAMPA INTL     FAIR      89  75  63 SW12      30.00F HX  99           
TAMPA EXEC     CLOUDY    88  77  70 SW3G17    30.00F HX 100           
PLANT CITY       N/A    N/A N/A N/A MISG        N/A                   
MACDILL AFB    FAIR      87  77  73 S16       30.00F HX  98           
PETER O KNIGHT CLOUDY    88  77  70 SW12      30.01S HX 100           
ST PETERSBURG  CLOUDY    86  75  69 SW10      29.98F HX  95           
SARASOTA       FAIR      87  77  72 S15       30.00S HX  99           
VENICE         FAIR      90  77  66 S15       30.02F HX 102           

STATION/POSITION SKY/WX   TEMP    WIND        PRES    WAVE   SWELL
                          AIR SEA DIR/SP/G            HT/PER HT/PER
                          (F)     (DEG/KT/KT) (MB)    (FT/S) (FT/S)
27.3N   84.2W                 83                N/A     2/ 5
CLEARWATER BEACH NOT AVBL
MIDDLE TAMPA BAY NOT AVBL
VENICE                     83 84  200/ 15/ 16 1016.4F

$$
FLZ066-069-070-075>078-162-262-165-265-182200-
SOUTHWEST FLORIDA AND KEYS
  
CITY           SKY/WX    TMP DP  RH WIND       PRES   REMARKS
PUNTA GORDA    FAIR      88  70  55 SW14      30.03S                  
FT MYERS       FAIR      88  72  58 S8        30.02F                  
SOUTHWEST INTL FAIR      85  71  63 S6        30.03F                  
NAPLES         FAIR      75 N/A N/A SE9       30.02F                  
IMMOKALEE      LGT RAIN  75  72  88 CALM      30.02F                  
MARATHON       FAIR     N/A N/A N/A SE6       30.03F FOG              
KEY WEST NAS   PTSUNNY   89  76  65 S10       30.02F HX 100           
KEY WEST INTL  FAIR      85  77  77 SE9       30.03F HX  95           

STATION/POSITION SKY/WX   TEMP    WIND        PRES    WAVE   SWELL
                          AIR SEA DIR/SP/G            HT/PER HT/PER
                          (F)     (DEG/KT/KT) (MB)    (FT/S) (FT/S)
NAPLES           NOT AVBL
DRY TORTUGAS               84     150/ 11/ 12 1016.5F
SAND KEY                   83                 1016.7F
SOMBRERO KEY               83                 1016.2F

$$
FLZ067-068-071>074-168-172>174-182200-
SOUTHEAST FLORIDA 
  
CITY           SKY/WX    TMP DP  RH WIND       PRES   REMARKS
W PALM BEACH   TSTM      79  72  79 SE3       30.05R                  
BOCA RATON     PTSUNNY   75  73  94 SW5       30.04F                  
FT LAUDER-EXEC FAIR      77  74  90 CALM      30.04S                  
FT LAUDERDALE  PTSUNNY   80  73  79 CALM      30.04S THUNDER          
POMPANO BEACH  PTSUNNY   77  74  90 NW5       30.04F                  
PEMBROKE PINES TSTM      79  72  79 E5        30.07R                  
OPA LOCKA      TSTM      77  73  87 SW16      30.08R VSB 1/2          
MIAMI          TSTM      77  70  79 CALM      30.08R FOG              
WEST KENDALL   TSTM      75  75 100 W24G35    30.07R VSB 1/4          
HOMESTEAD      PTSUNNY   81  73  76 NW25G32   30.05R                  

STATION/POSITION SKY/WX   TEMP    WIND        PRES    WAVE   SWELL
                          AIR SEA DIR/SP/G            HT/PER HT/PER
                          (F)     (DEG/KT/KT) (MB)    (FT/S) (FT/S)
SETTLEMENT POINT           82     210/ 10/ 11 1017.3F

$$